Litchfield, MN

5:27 PM CDT on March 25, 2017 (GMT -0500)
Litchfield Municipal

Weather History for KLJF - March, 2015

Change the Weather History Date:

Tuesday, March 3, 2015

  Actual Average Record
Temperature  
Mean Temperature 16 °F -  
Max Temperature 26 °F 33 °F 62 °F (1983)
Min Temperature 3 °F 14 °F -15 °F (1971)
Degree Days  
Heating Degree Days 50    
Moisture  
Dew Point 13 °F    
Average Humidity 80    
Maximum Humidity 100    
Minimum Humidity 61    
Precipitation  
Precipitation 0.06 in - - ()
Sea Level Pressure  
Sea Level Pressure 29.82 in    
Wind  
Wind Speed 10 mph (West)    
Max Wind Speed 25 mph    
Max Gust Speed 34 mph    
Visibility 7 miles    
Events Snow    
Averages and records for this station are not official NWS values.
T = Trace of Precipitation, MM = Missing Value Source: NWS Daily Summary

Daily Weather History Graph

Daily Weather History Graph

Search for Another Location

Airport or City:

Trip Planner

Search our weather history database for the weather conditions in past years. The results will help you decide how hot, cold, wet, or windy it might be!

Date:

Astronomy

Mar. 03, 2015 Rise Set
Actual Time 6:52 AM CST 6:07 PM CST
Civil Twilight 6:23 AM CST 6:37 PM CST
Nautical Twilight 5:49 AM CST 7:11 PM CST
Astronomical Twilight 5:15 AM CST 7:45 PM CST
Moon 4:29 PM CST (3/3) 5:37 AM CST (3/3)
Length of Visible Light 12h 13m
Length of Day
11h 15m
Waxing Gibbous, 96% of the Moon is Illuminated
Mar 3
Waxing Gibbous
Mar 5
Full
Mar 13
Last Quarter
Mar 20
New
Mar 27
First Quarter

Hourly Weather History & Observations

Time (CST) Temp. Windchill Dew Point Humidity Pressure Visibility Wind Dir Wind Speed Gust Speed Precip Events Conditions
12:12 AM 23.0 °F 13.9 °F 15.8 °F 74% 29.95 in 10.0 mi SSE 8.1 mph - N/A   Scattered Clouds
12:33 AM 23.0 °F 13.1 °F 17.6 °F 80% 29.94 in 7.0 mi SSE 9.2 mph - N/A Snow Light Snow
12:53 AM 23.0 °F 13.9 °F 15.8 °F 74% 29.92 in 10.0 mi SSE 8.1 mph - N/A   Mostly Cloudy
1:12 AM 23.0 °F 14.7 °F 17.6 °F 80% 29.90 in 5.0 mi SE 6.9 mph 16.1 mph N/A Snow Light Snow
1:33 AM 23.0 °F 14.7 °F 17.6 °F 80% 29.89 in 10.0 mi SSE 6.9 mph - N/A   Overcast
1:52 AM 23.0 °F 13.9 °F 15.8 °F 74% 29.88 in 10.0 mi SSE 8.1 mph - N/A   Overcast
2:13 AM 23.0 °F 13.1 °F 15.8 °F 74% 29.87 in 10.0 mi SE 9.2 mph - N/A   Overcast
2:33 AM 23.0 °F 13.9 °F 15.8 °F 74% 29.85 in 10.0 mi SE 8.1 mph - N/A   Overcast
2:52 AM 23.0 °F 15.8 °F 15.8 °F 74% 29.83 in 10.0 mi SE 5.8 mph - N/A   Overcast
3:13 AM 23.0 °F 14.7 °F 15.8 °F 74% 29.82 in 10.0 mi SSE 6.9 mph - N/A   Overcast
3:33 AM 23.0 °F 15.8 °F 15.8 °F 74% 29.79 in 10.0 mi SSE 5.8 mph - N/A   Overcast
3:53 AM 23.0 °F 15.8 °F 15.8 °F 74% 29.78 in 10.0 mi SSE 5.8 mph - N/A   Overcast
4:12 AM 23.0 °F 15.8 °F 15.8 °F 74% 29.78 in 10.0 mi SSE 5.8 mph - N/A   Overcast
4:33 AM 23.0 °F 15.8 °F 17.6 °F 80% 29.77 in 10.0 mi SSE 5.8 mph - N/A   Overcast
4:53 AM 23.0 °F 15.8 °F 17.6 °F 80% 29.75 in 7.0 mi SE 5.8 mph - N/A   Overcast
5:12 AM 23.0 °F 17.0 °F 17.6 °F 80% 29.74 in 7.0 mi SE 4.6 mph - N/A Snow Light Snow
5:33 AM 21.2 °F 16.4 °F 19.4 °F 93% 29.72 in 7.0 mi SE 3.5 mph - N/A Snow Light Snow
5:53 AM 21.2 °F 14.9 °F 19.4 °F 93% 29.71 in 7.0 mi SE 4.6 mph - N/A   Overcast
6:12 AM 21.2 °F 14.9 °F 19.4 °F 93% 29.70 in 5.0 mi SE 4.6 mph - N/A Snow Light Snow
6:33 AM 21.2 °F 16.4 °F 19.4 °F 93% 29.69 in 4.0 mi SSE 3.5 mph - N/A Snow Light Snow
6:53 AM 21.2 °F 14.9 °F 19.4 °F 93% 29.69 in 1.5 mi SSE 4.6 mph - N/A Snow Light Snow
7:12 AM 21.2 °F - 21.2 °F 100% 29.70 in 1.5 mi Calm Calm - N/A Snow Light Snow
7:33 AM 21.2 °F 16.4 °F 21.2 °F 100% 29.70 in 0.5 mi SW 3.5 mph - N/A   Overcast
7:53 AM 21.2 °F - 21.2 °F 100% 29.69 in 0.8 mi Calm Calm - N/A   Overcast
8:12 AM 23.0 °F 18.4 °F 21.2 °F 93% 29.67 in 0.8 mi SSE 3.5 mph - N/A   Overcast
8:33 AM 23.0 °F - 21.2 °F 93% 29.68 in 0.8 mi Calm Calm - N/A   Overcast
8:53 AM 23.0 °F 18.4 °F 23.0 °F 100% 29.67 in 0.8 mi SSW 3.5 mph - N/A Snow Snow
9:13 AM 24.8 °F 20.5 °F 23.0 °F 93% 29.67 in 1.2 mi SW 3.5 mph - 0.03 in   Overcast
9:33 AM 24.8 °F 17.9 °F 23.0 °F 93% 29.67 in 2.0 mi WSW 5.8 mph - 0.05 in Snow Light Snow
9:53 AM 24.8 °F 16.9 °F 24.8 °F 100% 29.67 in 3.0 mi West 6.9 mph - N/A Snow Light Snow
10:13 AM 26.6 °F 15.2 °F 23.0 °F 86% 29.68 in 5.0 mi West 13.8 mph - 0.01 in Snow Light Snow
10:33 AM 26.6 °F 15.7 °F 23.0 °F 86% 29.68 in 4.0 mi West 12.7 mph 19.6 mph 0.01 in   Mostly Cloudy
10:53 AM 26.6 °F 14.3 °F 24.8 °F 93% 29.68 in 2.5 mi WNW 16.1 mph 20.7 mph N/A   Mostly Cloudy
11:12 AM 26.6 °F 14.3 °F 24.8 °F 93% 29.69 in 1.8 mi NW 16.1 mph 25.3 mph N/A Snow Light Snow
11:33 AM 24.8 °F 9.3 °F 21.2 °F 86% 29.71 in 3.0 mi NW 24.2 mph 33.4 mph N/A Snow Light Snow
11:53 AM 24.8 °F 9.6 °F 19.4 °F 80% 29.72 in 3.0 mi NW 23.0 mph 29.9 mph N/A   Haze
12:12 PM 24.8 °F 11.1 °F 17.6 °F 74% 29.74 in 3.0 mi NW 18.4 mph 34.5 mph N/A   Haze
12:33 PM 24.8 °F 9.0 °F 17.6 °F 74% 29.74 in 5.0 mi NW 25.3 mph 32.2 mph N/A   Haze
12:53 PM 24.8 °F 9.6 °F 17.6 °F 74% 29.75 in 4.0 mi NW 23.0 mph 32.2 mph N/A   Haze
1:12 PM 24.8 °F 10.7 °F 15.8 °F 69% 29.75 in 7.0 mi NW 19.6 mph 29.9 mph N/A   Scattered Clouds
1:33 PM 24.8 °F 11.1 °F 15.8 °F 69% 29.75 in 7.0 mi NW 18.4 mph 26.5 mph N/A   Mostly Cloudy
1:53 PM 21.2 °F 6.4 °F 15.8 °F 80% 29.76 in 7.0 mi NW 18.4 mph 28.8 mph N/A   Overcast
2:12 PM 21.2 °F 6.4 °F 12.2 °F 68% 29.77 in 7.0 mi NW 18.4 mph 34.5 mph N/A   Mostly Cloudy
2:33 PM 19.4 °F 5.0 °F 10.4 °F 68% 29.78 in 10.0 mi NW 16.1 mph 34.5 mph N/A   Scattered Clouds
2:53 PM 19.4 °F 4.5 °F 12.2 °F 74% 29.80 in 7.0 mi WNW 17.3 mph 29.9 mph N/A   Mostly Cloudy
3:12 PM 19.4 °F 2.5 °F 10.4 °F 68% 29.81 in 7.0 mi WNW 23.0 mph 33.4 mph N/A   Mostly Cloudy
3:33 PM 17.6 °F 2.2 °F 10.4 °F 73% 29.81 in 5.0 mi WNW 17.3 mph 29.9 mph N/A   Haze
3:53 PM 17.6 °F 1.7 °F 10.4 °F 73% 29.82 in 7.0 mi NW 18.4 mph 27.6 mph N/A   Overcast
4:12 PM 15.8 °F -1.5 °F 10.4 °F 79% 29.82 in 3.0 mi NW 20.7 mph 31.1 mph N/A Snow Light Snow
4:33 PM 15.8 °F -0.2 °F 8.6 °F 73% 29.84 in 5.0 mi NW 17.3 mph 24.2 mph N/A Snow Light Snow
4:53 PM 15.8 °F -1.5 °F 6.8 °F 68% 29.85 in 10.0 mi NW 20.7 mph 29.9 mph N/A   Mostly Cloudy
5:12 PM 15.8 °F -0.2 °F 8.6 °F 73% 29.87 in 10.0 mi NW 17.3 mph 27.6 mph N/A   Mostly Cloudy
5:33 PM 14.0 °F -2.0 °F 6.8 °F 73% 29.89 in 10.0 mi WNW 16.1 mph 24.2 mph N/A   Mostly Cloudy
5:52 PM 12.2 °F -5.8 °F 5.0 °F 73% 29.89 in 10.0 mi WNW 19.6 mph 26.5 mph N/A   Scattered Clouds
6:13 PM 12.2 °F -3.1 °F 8.6 °F 85% 29.91 in 5.0 mi WNW 13.8 mph 18.4 mph N/A   Scattered Clouds
6:33 PM 12.2 °F -3.7 °F 8.6 °F 85% 29.93 in 5.0 mi WNW 15.0 mph 20.7 mph N/A   Mostly Cloudy
6:52 PM 10.4 °F -7.2 °F 6.8 °F 85% 29.95 in 10.0 mi WNW 17.3 mph 26.5 mph N/A   Mostly Cloudy
7:13 PM 10.4 °F -6.0 °F 6.8 °F 85% 29.96 in 10.0 mi WNW 15.0 mph 20.7 mph N/A   Scattered Clouds
7:33 PM 10.4 °F -2.4 °F 6.8 °F 85% 29.97 in 10.0 mi WNW 9.2 mph 18.4 mph N/A   Scattered Clouds
7:52 PM 10.4 °F -1.5 °F 3.2 °F 73% 29.97 in 10.0 mi WNW 8.1 mph 19.6 mph N/A   Scattered Clouds
8:13 PM 8.6 °F -7.0 °F 3.2 °F 79% 29.98 in 10.0 mi WNW 12.7 mph 19.6 mph N/A   Mostly Cloudy
8:33 PM 8.6 °F -7.0 °F 3.2 °F 79% 29.98 in 10.0 mi WNW 12.7 mph 20.7 mph N/A   Scattered Clouds
8:52 PM 8.6 °F -6.3 °F 3.2 °F 79% 29.99 in 10.0 mi WNW 11.5 mph 18.4 mph N/A   Clear
9:12 PM 8.6 °F -8.3 °F -0.4 °F 67% 30.00 in 10.0 mi WNW 15.0 mph 23.0 mph N/A   Clear
9:33 PM 8.6 °F -7.7 °F -0.4 °F 67% 30.00 in 10.0 mi NW 13.8 mph 21.9 mph N/A   Clear
9:52 PM 6.8 °F -9.3 °F -0.4 °F 72% 30.00 in 10.0 mi NW 12.7 mph 20.7 mph N/A   Clear
10:13 PM 6.8 °F -6.9 °F -2.2 °F 67% 30.01 in 10.0 mi WNW 9.2 mph 28.8 mph N/A   Clear
10:33 PM 6.8 °F -10.7 °F -2.2 °F 67% 30.02 in 10.0 mi NW 15.0 mph 23.0 mph N/A   Clear
10:53 PM 6.8 °F -9.3 °F -4.0 °F 61% 30.02 in 10.0 mi NW 12.7 mph 25.3 mph N/A   Clear
11:13 PM 5.0 °F -9.1 °F -4.0 °F 66% 30.02 in 10.0 mi WNW 9.2 mph 20.7 mph N/A   Clear
11:32 PM 5.0 °F -6.9 °F -4.0 °F 66% 30.03 in 10.0 mi WNW 6.9 mph 18.4 mph N/A   Clear
11:53 PM 3.2 °F - -2.2 °F 78% 30.03 in 10.0 mi Calm Calm - N/A   Clear